Temp
53 53 53 53 53 53 50 45 35 57 57 36 40 38 49 53 59 64 65 66 63 63 63 61 61 60 65 70 71 64 70 64 56 59 71 74 68 65 64 53 52 56 53 55
53 53 53 53 53 53 47 39 41 56 54 32 37 47 50 56 56 59 61 61 64 66 62 57 62 64 69 70 68 66 69 61 51 56 63 68 64 67 67 65 62 51 43 54
51 52 53 53 52 52 48 39 33 40 43 50 45 45 47 50 56 57 61 61 65 62 59 63 60 62 64 68 68 60 66 63 57 51 58 65 59 64 67 64 53 54 56 61
51 50 52 52 52 52 47 39 39 43 33 37 46 50 50 50 48 57 59 55 61 60 56 59 57 61 62 62 59 64 66 57 61 63 66 67 65 64 64 62 63 55 60 62
51 51 49 51 52 51 43 35 46 49 48 44 46 47 47 50 52 55 53 52 57 62 58 60 56 59 59 57 62 62 68 57 61 58 65 65 61 66 66 67 66 65 66 64
51 52 52 52 51 50 42 42 57 52 46 43 43 46 48 50 55 58 62 59 56 57 61 64 64 62 61 60 57 61 62 59 56 50 62 61 52 61 64 66 69 67 60 68
50 51 51 51 51 50 45 46 57 46 42 42 46 49 52 52 55 53 60 63 57 62 68 65 64 60 60 58 59 63 58 58 57 49 45 38 59 71 70 66 68 72 71 73
50 50 50 51 51 51 46 53 55 49 40 48 48 49 51 54 55 53 58 63 67 66 62 50 48 48 46 51 55 58 62 57 50 44 46 55 62 65 65 64 64 73 72 74
50 50 49 50 51 51 47 53 61 53 46 47 54 50 52 49 50 52 56 66 69 63 52 48 42 42 49 46 49 59 59 59 51 48 43 39 57 69 75 73 56 74 75 73
50 50 49 50 51 50 47 49 60 55 47 54 54 46 49 56 54 51 54 59 57 60 48 41 44 46 57 45 43 42 45 48 44 46 45 54 68 71 76 52 56 75 76 75
50 50 50 50 50 50 48 51 59 54 49 54 57 58 52 55 57 49 55 53 53 51 43 45 47 47 53 50 55 50 45 44 42 47 44 41 68 68 60 68 74 75 75 76
49 50 50 50 50 50 49 48 57 59 50 48 57 54 55 56 62 60 58 55 56 58 52 52 53 46 47 51 45 62 48 55 51 55 55 67 68 68 74 77 75 75 75 77
49 49 50 50 49 49 51 50 54 53 47 47 51 51 53 53 58 61 52 58 64 61 66 59 54 47 55 43 48 55 60 63 56 57 64 67 70 72 72 75 75 77 77 76
49 49 49 49 49 50 52 50 54 54 50 38 46 61 56 53 55 55 60 61 67 67 64 57 51 48 62 52 55 54 59 61 58 59 65 67 70 68 69 73 74 73 73 75
49 48 49 49 50 51 51 53 53 58 51 41 46 55 58 57 49 48 55 58 58 61 55 50 48 58 57 59 57 54 62 60 54 53 64 62 64 71 71 73 72 70 70 70
48 48 49 48 50 49 47 38 49 54 52 49 41 54 55 59 53 51 53 54 57 60 57 53 59 64 59 48 49 61 66 68 68 64 68 67 70 66 68 71 73 72 69 70
47 47 48 49 50 52 43 44 54 55 60 49 40 43 53 56 51 51 51 54 56 56 55 52 56 58 59 50 47 61 67 68 69 69 65 59 63 65 64 64 70 65 68 68
47 48 49 48 47 48 49 54 52 57 52 52 38 35 40 51 40 40 53 51 53 53 53 55 52 57 54 46 58 62 65 67 66 65 67 62 60 59 60 61 60 60 62 62
47 48 49 47 46 46 47 49 50 56 51 41 35 33 34 45 43 43 46 50 44 56 48 50 53 50 44 55 60 62 64 62 64 66 65 63 58 60 58 56 55 56 54 57
48 50 49 42 47 46 47 41 40 47 48 43 35 41 34 36 38 40 40 44 43 39 44 55 47 48 56 43 51 58 57 57 60 55 55 56 55 57 55 54 55 55 53 53
54 48 42 49 47 43 42 39 37 38 35 43 42 42 34 39 36 37 42 38 39 34 38 45 43 43 38 38 43 51 55 56 57 58 57 56 57 57 53 52 52 52 49 48
47 50 51 46 42 41 35 35 38 37 37 43 41 41 45 43 44 40 39 36 37 34 38 35 29 33 37 36 37 42 45 50 52 53 53 51 52 53 52 50 47 45 41 35
54 51 44 45 39 30 30 28 32 34 39 38 40 37 45 45 46 36 39 36 34 37 33 31 32 36 36 35 35 36 37 38 40 40 42 40 38 39 37 34 34 34 33 32
37 34 31 32 31 29 29 30 31 34 34 38 41 38 37 37 36 34 34 33 35 33 31 28 32 33 33 34 34 33 31 31 31 31 31 30 30 30 30 30 30 29 28 28
32 32 24 28 30 31 31 32 33 34 33 34 36 35 35 34 34 34 34 33 28 29 27 29 32 33 34 33 33 32 31 31 31 31 31 30 30 30 30 30 30 30 28 27
31 27 24 27 29 28 29 29 30 33 32 33 34 34 33 31 33 29 26 28 22 24 28 30 32 33 33 32 32 32 32 32 31 31 30 30 29 28 28 29 29 28 28 27
28 26 26 24 25 24 26 28 30 32 32 31 32 27 25 33 27 23 25 22 25 27 27 29 30 29 30 31 31 31 31 31 31 30 30 30 30 30 28 26 27 27 27 26
MSLP
1004.90 1005.84 1006.81 1007.92 1009.19 1010.62 1012.00 1012.46 1011.44 1010.89 1012.84 1013.97 1012.22 1011.29 1007.85 1006.89 1005.24 1004.34 1002.65 1002.01 1001.24 1000.41 1000.37 1000.26 1000.22 1000.16 1000.32 1000.69 1000.80 1001.06 1001.37 1001.50 1001.33 1001.97 1001.89 1001.94 1002.02 1002.15 1002.51 1002.87 1003.14 1003.31 1002.74 1001.63
1003.04 1004.01 1005.12 1006.40 1007.64 1008.99 1010.47 1010.67 1010.98 1010.86 1011.66 1011.00 1009.68 1008.92 1007.24 1005.47 1005.38 1004.19 1003.03 1002.12 1001.67 1000.74 1000.49 1000.49 1000.28 1000.29 1000.65 1001.01 1001.16 1000.68 1001.34 1001.37 1001.43 1001.14 1001.85 1001.94 1001.55 1001.42 1001.66 1002.33 1002.66 1003.18 1003.40 1001.76
1001.95 1002.34 1003.09 1004.64 1006.01 1007.36 1008.85 1009.65 1009.62 1010.27 1010.42 1009.17 1008.31 1006.41 1005.16 1005.24 1005.80 1004.69 1003.55 1002.98 1002.20 1001.48 1001.14 1000.91 1000.29 1000.28 1001.09 1001.12 1001.34 1001.15 1001.44 1001.26 1001.20 1000.48 1000.29 1000.83 1001.17 1001.14 1001.24 1001.67 1002.06 1002.31 1001.72 1000.90
1000.41 1001.09 1001.34 1002.69 1004.25 1005.70 1007.06 1007.20 1006.22 1006.00 1006.76 1006.87 1005.39 1006.09 1004.98 1004.47 1004.47 1004.38 1003.99 1003.21 1001.94 1001.36 1000.94 1000.74 1001.16 1001.06 1001.50 1001.97 1002.03 1001.70 1001.60 1001.01 1001.12 1000.82 1000.35 1000.02 999.88 1000.26 1000.68 1000.73 1001.05 1001.12 1000.97 1000.20
998.70 999.59 1000.59 1001.45 1002.60 1004.17 1005.03 1005.01 1003.51 1004.40 1004.06 1005.84 1005.66 1005.02 1004.12 1003.41 1003.91 1003.57 1002.88 1002.87 1002.87 1001.56 1001.13 1000.86 1001.23 1001.75 1001.85 1002.23 1002.60 1002.08 1001.58 1001.25 1001.35 1000.77 1000.57 1000.11 999.78 999.59 999.67 999.57 999.79 999.97 999.99 999.57
996.52 997.70 998.82 1000.19 1001.52 1002.23 1001.93 1003.85 1003.20 1002.66 1003.37 1004.10 1004.58 1003.46 1002.58 1002.29 1002.94 1002.47 1002.45 1002.20 1002.54 1002.01 1001.39 1001.45 1002.51 1003.04 1002.72 1003.50 1003.25 1002.24 1001.69 1001.60 1001.27 1000.90 1000.56 1000.11 999.61 999.51 999.28 999.12 999.19 999.14 999.12 999.08
994.20 995.60 997.00 998.32 999.80 1000.72 1001.41 1002.24 1001.45 1001.88 1001.35 1002.80 1001.85 1002.28 1002.45 1002.15 1001.86 1001.80 1001.90 1002.02 1002.06 1003.10 1002.54 1003.13 1003.44 1003.89 1003.36 1003.79 1003.86 1003.39 1002.42 1002.06 1001.71 1001.58 1001.63 1000.23 999.63 999.37 999.07 998.93 998.72 998.46 998.55 998.65
991.95 993.63 995.26 996.96 998.41 999.91 1001.01 1001.04 1000.43 1000.48 1000.89 1001.02 1001.73 1002.00 1001.88 1002.13 1002.33 1001.83 1001.73 1001.55 1002.08 1003.07 1003.89 1004.89 1004.33 1004.16 1004.31 1004.32 1004.45 1003.97 1003.27 1002.62 1002.23 1001.74 1001.17 1000.40 999.07 999.04 998.74 998.28 997.97 997.83 997.88 998.14
990.22 992.00 993.93 995.82 997.59 999.36 1001.26 999.90 1000.05 1000.36 1000.51 999.86 1000.53 1001.00 1001.43 1001.43 1001.55 1002.28 1002.10 1001.90 1002.53 1003.16 1004.80 1004.80 1003.73 1002.60 1002.70 1003.18 1004.16 1003.82 1003.56 1003.05 1002.80 1002.04 1000.94 999.41 998.97 998.53 998.29 998.09 997.34 997.45 997.32 997.71
989.13 991.04 993.09 994.97 996.81 998.69 1000.47 999.86 999.92 1000.21 1000.09 1000.11 1000.49 1001.08 1000.98 1001.30 1001.48 1001.68 1001.98 1001.56 1002.49 1003.26 1003.62 1004.29 1003.46 1002.01 1001.67 1001.84 1002.15 1003.73 1003.64 1003.17 1002.46 1001.77 1000.45 998.90 998.00 997.81 997.41 997.90 997.15 996.93 996.96 997.61
988.61 990.50 992.42 994.45 996.24 998.27 999.66 999.55 999.75 999.87 1000.43 1000.35 1000.70 1000.94 1001.59 1001.18 1000.90 1001.01 1001.49 1001.61 1001.84 1003.25 1003.64 1003.15 1003.01 1001.92 1001.31 1001.35 1000.90 1001.12 1002.31 1002.15 1001.73 1001.24 999.98 998.90 998.20 997.90 997.47 996.93 996.91 997.04 997.35 997.67
988.62 990.37 992.44 994.30 996.09 998.20 999.38 999.41 1000.03 1000.64 1001.58 1002.08 1001.95 1002.72 1002.92 1002.65 1001.11 1000.71 1001.23 1001.23 1001.27 1001.18 1001.70 1001.63 1002.01 1001.80 1001.63 1000.92 1000.20 999.85 1000.20 1000.02 1000.14 999.56 998.55 998.31 998.15 997.55 997.21 996.99 996.60 996.80 997.25 997.67
989.66 991.30 992.93 994.59 996.58 998.32 999.08 999.48 1000.43 1001.64 1002.19 1002.60 1002.24 1002.08 1003.30 1003.30 1003.23 1002.77 1001.43 1001.45 1000.26 1000.75 1000.55 1000.77 1001.57 1001.63 1001.16 1000.91 1000.25 999.44 999.47 999.50 999.11 999.05 998.30 998.02 997.81 997.80 997.73 997.49 997.17 997.15 997.40 997.80
990.82 992.31 993.65 995.17 996.85 998.35 999.08 999.70 1000.81 1000.90 1001.88 1002.27 1001.73 1001.80 1002.47 1003.63 1004.31 1004.14 1003.00 1001.84 1000.48 1000.25 1000.66 1000.46 1001.05 1001.19 1000.24 1000.24 1000.02 999.32 999.14 999.14 998.84 998.15 997.97 997.81 997.55 997.70 997.67 997.60 997.86 998.03 998.20 998.27
992.06 993.42 994.73 996.40 997.93 998.85 1000.00 1000.93 1001.40 1001.29 1001.53 1001.75 1001.43 1001.93 1002.25 1003.03 1003.89 1004.24 1003.55 1002.30 1001.44 1000.52 1000.53 1000.48 1000.63 1000.61 1000.49 1000.03 1000.00 998.74 998.68 998.17 998.05 997.77 997.83 997.71 997.52 997.48 997.34 997.43 997.65 998.48 998.35 998.72
993.25 994.66 995.85 997.28 998.22 999.53 1000.82 1002.54 1002.75 1002.48 1002.71 1001.98 1001.57 1001.89 1001.56 1001.79 1003.30 1004.18 1003.55 1002.96 1001.88 1000.76 1000.36 1000.47 1000.29 1000.09 1000.00 999.53 998.83 998.47 998.01 997.57 997.68 997.54 998.05 997.86 997.70 998.01 997.77 997.61 997.78 998.19 998.82 998.92
994.92 996.29 997.48 998.40 999.27 1000.00 1001.30 1001.75 1001.17 1002.09 1001.88 1001.79 1001.95 1001.57 1001.07 1001.67 1003.13 1003.27 1002.92 1002.88 1001.87 1001.42 1000.60 1000.59 1000.16 999.93 999.87 999.47 998.56 998.14 997.31 997.21 997.27 997.57 998.05 998.46 998.48 998.21 998.43 998.71 998.47 998.67 998.93 999.27
997.00 997.88 998.80 999.70 1000.54 1001.71 1001.81 1001.96 1002.05 1002.10 1002.22 1002.62 1002.75 1002.74 1002.29 1002.15 1002.52 1002.73 1002.07 1001.93 1002.10 1001.51 1000.78 1000.31 1000.22 999.99 1000.33 999.65 998.92 998.41 997.97 997.61 997.61 997.95 998.11 998.81 999.37 999.42 999.54 999.74 999.76 999.72 999.64 1000.10
998.37 999.16 999.95 1000.75 1001.33 1001.45 1002.32 1002.86 1003.01 1002.99 1002.81 1002.67 1003.33 1002.75 1001.94 1002.04 1002.15 1002.16 1001.86 1001.76 1001.65 1000.96 1000.48 1000.37 1000.27 1000.09 1000.21 999.76 999.14 998.65 998.05 997.93 997.52 997.93 998.31 998.98 999.50 999.54 1000.01 1000.47 1000.94 1000.82 1000.82 1001.24
999.66 1000.11 999.89 1001.00 1001.84 1002.55 1002.92 1004.13 1003.61 1002.97 1002.78 1003.32 1002.68 1002.53 1002.34 1002.66 1001.45 1000.39 1001.46 1001.01 1000.90 1000.99 1000.77 1000.47 1000.44 1000.46 1000.93 1002.47 1001.96 1000.87 1000.25 1000.04 999.40 999.32 999.45 999.80 1000.01 1000.08 1000.65 1001.08 1001.63 1001.92 1002.44 1003.14
999.34 999.48 1000.57 1001.51 1002.40 1002.57 1002.41 1002.59 1002.77 1002.69 1002.71 1002.35 1001.80 1001.75 1002.12 1002.02 1000.41 1000.43 1000.80 1000.86 1001.20 1001.33 1001.16 1000.69 1001.23 1002.55 1004.52 1004.88 1004.04 1003.03 1002.07 1001.56 1001.15 1000.83 1000.96 1001.02 1000.79 1000.69 1001.45 1002.11 1002.75 1003.34 1004.07 1004.72
1000.37 1000.14 1001.17 1002.35 1002.59 1002.35 1002.46 1002.46 1002.58 1002.27 1001.27 1000.97 1000.93 1001.45 1001.30 1001.54 1001.23 1000.49 1000.91 1000.89 1001.44 1001.37 1001.83 1002.26 1003.98 1006.14 1006.64 1006.38 1005.71 1004.84 1004.12 1003.27 1002.77 1002.69 1002.48 1002.66 1002.52 1002.40 1002.75 1003.66 1004.67 1005.34 1006.37 1007.51
1000.31 1000.00 1000.60 1001.40 1002.55 1002.92 1003.18 1003.22 1002.83 1002.18 1002.01 1001.54 1000.71 1000.79 1000.62 1000.60 1000.63 1001.08 1001.02 1001.18 1001.90 1002.39 1003.06 1004.60 1006.70 1007.62 1007.78 1007.46 1007.08 1006.39 1006.09 1005.65 1005.43 1005.36 1005.31 1005.53 1005.63 1005.38 1005.80 1006.62 1007.66 1008.42 1009.04 1009.97
1001.88 1002.01 1002.39 1003.24 1003.59 1004.64 1005.09 1005.02 1004.56 1004.24 1003.67 1003.04 1002.35 1002.09 1001.58 1002.03 1001.88 1002.37 1002.10 1002.84 1002.97 1003.60 1004.86 1006.83 1008.35 1008.84 1008.81 1008.71 1008.57 1008.18 1007.94 1007.62 1007.60 1007.71 1007.83 1007.74 1007.87 1008.26 1008.71 1009.12 1009.68 1010.31 1011.28 1012.35
1003.97 1004.38 1005.19 1005.80 1006.79 1006.93 1006.92 1006.32 1005.58 1005.19 1004.53 1003.85 1002.65 1002.58 1003.47 1003.67 1003.75 1003.70 1003.62 1004.35 1005.64 1007.15 1008.58 1009.95 1010.24 1009.96 1009.86 1009.78 1009.71 1009.57 1009.37 1009.23 1009.27 1009.45 1009.55 1009.58 1009.76 1010.21 1010.91 1011.42 1011.84 1012.22 1012.88 1013.59
1006.27 1007.66 1007.61 1007.79 1007.86 1008.30 1008.06 1007.52 1007.07 1006.68 1006.00 1005.32 1004.77 1004.42 1004.77 1005.23 1005.47 1005.99 1006.97 1007.48 1009.40 1011.07 1011.81 1012.23 1011.91 1011.49 1011.29 1011.17 1011.07 1010.93 1010.85 1010.88 1010.91 1011.04 1011.20 1011.36 1011.61 1012.25 1012.77 1013.28 1013.73 1014.23 1014.73 1015.46
1008.20 1009.24 1010.02 1009.48 1008.86 1009.79 1009.52 1008.91 1007.90 1007.35 1006.65 1006.11 1006.22 1006.60 1007.43 1007.46 1008.21 1009.83 1011.14 1011.97 1013.05 1013.41 1013.91 1014.10 1013.87 1013.49 1013.08 1012.78 1012.60 1012.47 1012.46 1012.55 1012.66 1012.76 1013.00 1013.28 1013.80 1014.16 1014.33 1014.96 1016.02 1016.35 1016.88 1017.35
Wind_Speed
32 31 30 30 30 30 22 8 9 10 16 10 7 19 34 20 27 33 21 18 21 27 14 18 19 20 19 9 17 25 23 11 11 16 18 20 9 17 18 10 13 9 8 11
33 33 32 32 33 35 13 6 6 10 16 14 16 27 38 33 26 27 25 19 21 10 11 14 21 19 15 11 19 23 20 13 13 16 12 10 12 15 15 16 11 10 5 8
27 31 35 34 36 38 15 7 9 6 14 19 26 34 37 34 28 27 27 22 20 17 17 11 8 19 6 9 13 13 17 16 20 14 17 15 19 17 16 14 9 12 14 15
29 26 31 37 37 40 17 9 9 12 18 23 31 28 23 28 33 29 21 23 27 20 14 15 11 10 7 3 7 6 16 22 20 21 19 16 18 23 21 20 17 17 14 17
34 32 33 27 36 41 14 6 10 17 13 24 30 29 33 32 30 29 25 24 29 22 21 15 11 10 6 8 9 14 16 15 21 21 19 19 18 17 18 20 18 17 19 20
37 37 36 37 35 34 7 7 16 14 18 26 23 27 34 38 33 31 30 26 17 22 19 5 5 7 8 2 9 12 13 13 16 16 16 19 16 17 18 18 17 15 17 15
38 39 38 38 40 38 6 11 14 11 14 18 26 31 33 33 33 30 30 27 21 22 4 3 2 4 4 1 8 10 7 14 11 9 2 13 9 14 20 21 20 17 16 17
38 39 39 39 38 42 8 12 13 10 11 21 22 27 27 29 28 20 28 22 18 7 6 2 8 6 4 9 13 14 10 11 8 9 13 13 18 8 12 15 16 16 16 15
35 39 39 39 36 39 14 10 12 11 13 16 26 21 23 21 18 22 24 22 8 11 7 6 15 11 10 10 8 11 14 12 11 6 14 19 13 14 12 14 14 15 14 12
34 36 38 37 37 36 17 7 16 11 10 12 11 13 17 23 21 16 20 24 13 12 7 9 13 11 13 11 11 8 6 7 14 12 9 8 10 14 12 12 15 12 6 6
33 37 37 35 34 37 16 10 15 10 7 5 5 9 18 17 20 15 13 18 10 10 10 10 10 7 10 10 13 18 13 8 6 10 11 15 3 9 15 14 15 8 9 9
34 34 34 35 35 37 15 9 9 4 1 1 6 5 4 7 14 14 13 19 22 10 10 8 8 5 2 8 9 16 16 9 9 10 5 5 11 13 16 17 12 7 10 11
30 30 32 30 38 31 9 8 9 7 4 2 6 10 9 2 9 15 8 12 16 18 13 6 5 6 7 6 10 8 8 4 13 13 15 15 13 12 14 11 13 12 8 9
29 30 30 34 34 22 10 8 6 7 6 3 7 4 11 12 9 13 11 14 18 7 9 6 5 5 8 7 8 10 9 10 10 15 15 13 14 10 10 14 10 10 7 10
29 39 40 33 32 25 12 7 2 4 0 3 5 3 5 13 6 13 16 12 12 9 9 5 7 8 8 5 8 11 12 15 11 8 10 10 11 11 4 11 15 13 13 12
36 35 27 26 25 24 9 4 2 7 5 3 3 3 7 13 15 18 15 11 10 10 11 8 8 13 10 5 11 15 16 16 17 13 12 13 11 4 6 9 12 11 12 13
34 33 30 29 25 9 5 1 5 7 3 1 2 4 1 10 7 6 7 13 10 7 7 6 10 11 6 8 12 12 11 12 15 15 6 9 10 6 3 8 10 7 11 13
32 30 25 23 22 14 6 6 10 8 4 2 2 3 5 13 5 2 8 10 10 6 7 4 9 7 4 8 14 20 21 18 15 12 8 12 5 3 5 6 6 10 12 12
28 26 21 8 4 2 5 8 5 3 2 4 3 3 3 7 5 5 5 6 9 4 8 10 6 8 9 7 10 12 12 11 14 9 10 9 11 9 6 6 7 10 8 11
26 13 4 5 4 23 14 3 1 2 3 2 3 2 2 1 2 2 5 2 5 6 5 5 7 9 4 18 16 13 11 12 11 7 9 10 10 8 7 8 7 7 8 9
3 3 4 9 12 2 3 4 3 4 4 6 4 4 1 3 3 4 1 3 2 4 4 6 6 4 12 16 17 15 13 11 11 8 10 9 9 7 5 6 5 7 10 11
3 6 7 3 4 2 2 2 2 2 3 3 4 4 4 5 4 3 5 4 4 4 2 3 4 3 14 12 13 13 14 14 10 9 7 6 5 3 5 7 7 9 13 15
1 3 3 1 2 3 2 5 2 1 2 3 2 1 2 3 3 2 1 2 3 2 3 4 5 11 14 11 9 8 10 13 14 14 14 15 16 18 17 16 14 14 14 14
4 5 4 5 4 7 6 4 4 3 3 3 2 2 3 3 4 3 2 3 1 2 3 6 8 15 12 8 7 7 10 11 11 11 12 14 15 15 14 14 13 15 14 13
6 5 5 6 5 6 5 5 4 4 5 4 2 5 3 1 2 3 1 3 5 8 6 7 11 11 10 10 9 9 9 10 11 11 13 15 16 16 16 15 14 16 16 16
5 8 6 9 3 8 8 7 4 4 4 2 2 2 3 5 4 5 8 5 7 5 6 8 11 12 11 11 11 11 11 12 13 14 15 16 17 17 17 17 16 16 16 15
5 5 7 8 5 6 7 7 6 4 3 2 2 6 7 4 5 5 7 5 5 6 7 8 12 14 13 13 13 12 13 14 15 16 16 16 15 15 17 18 15 16 16 14
Wind_Direction
221 218 210 204 197 189 178 193 211 156 167 190 190 220 212 231 233 254 245 247 267 236 235 203 215 221 212 244 209 204 221 213 200 203 217 228 207 217 212 231 215 226 261 271
221 211 206 200 192 185 173 193 171 175 175 200 207 218 231 220 224 246 239 229 254 239 238 238 217 211 189 189 223 207 210 221 220 217 176 209 237 231 217 220 255 206 236 261
228 221 199 197 191 185 178 172 168 161 198 212 209 206 221 216 222 244 254 233 240 237 230 225 248 219 167 198 239 214 214 210 223 221 217 206 213 238 226 230 223 242 250 269
222 217 210 193 190 185 180 183 185 178 186 207 218 217 217 215 210 219 230 255 233 224 216 204 211 228 136 178 219 237 228 216 223 226 248 241 218 210 223 236 230 238 249 254
218 210 202 211 195 185 189 171 192 176 179 200 213 217 218 220 214 211 213 233 243 228 229 215 193 175 148 180 199 223 212 219 230 237 235 251 251 242 236 235 231 250 246 256
216 210 203 199 199 191 169 197 218 180 210 191 208 214 217 220 208 218 216 218 237 241 241 106 62 34 109 295 308 216 216 219 221 234 225 231 236 241 246 248 253 246 247 259
210 207 203 199 196 206 139 184 191 192 195 194 208 211 215 219 219 217 212 210 223 230 290 347 218 30 117 158 286 282 233 226 233 218 258 235 237 239 235 240 254 244 242 257
206 202 199 199 196 195 189 185 203 193 204 194 206 214 219 216 225 226 216 210 220 137 157 239 245 191 107 221 244 265 241 256 226 220 220 241 233 218 228 244 247 239 254 264
198 196 192 193 192 185 187 195 203 203 196 210 207 206 208 212 211 207 229 208 205 133 214 210 236 222 224 180 182 236 277 248 233 183 230 228 234 242 217 251 250 251 253 263
188 185 186 186 183 176 184 188 201 194 206 225 214 205 215 209 201 210 213 201 177 191 182 223 243 223 234 210 200 177 218 219 230 224 236 243 226 227 217 205 251 263 238 252
182 180 176 177 171 168 172 180 194 188 187 208 211 203 210 213 200 207 198 194 177 190 199 204 221 244 222 226 208 177 181 205 192 235 232 232 128 152 203 223 247 245 230 245
163 162 169 165 169 164 180 150 172 198 269 28 12 102 168 241 244 202 206 202 194 186 199 198 212 216 264 225 225 207 214 198 219 210 231 212 191 221 220 251 283 223 243 224
151 158 160 165 159 157 162 132 134 168 188 285 210 189 138 62 309 330 219 208 203 215 216 176 203 213 195 205 231 226 243 268 231 245 241 251 244 245 268 293 260 272 229 217
142 140 150 149 148 157 115 117 169 165 132 184 189 112 184 150 255 306 292 263 235 220 206 206 178 206 226 226 244 233 227 190 239 252 254 273 267 244 258 270 248 257 244 208
137 134 125 122 131 119 97 90 30 169 313 180 196 141 198 148 175 288 283 275 260 197 196 211 220 220 260 259 261 250 238 241 228 244 247 238 248 241 295 257 239 235 220 201
135 140 129 117 121 110 106 95 290 150 170 241 164 333 236 178 166 221 235 266 241 231 209 213 224 219 214 233 241 245 245 244 241 252 258 274 283 325 269 267 247 218 226 206
112 114 116 118 125 124 68 133 143 174 188 114 11 270 319 178 192 218 232 237 232 233 216 220 224 222 216 242 250 256 257 244 251 251 248 263 247 264 278 260 241 206 208 197
113 114 105 87 94 132 140 84 110 173 104 185 204 261 230 176 160 207 206 209 215 228 229 226 207 215 214 240 244 247 255 264 270 279 224 258 307 239 223 234 204 201 197 191
101 98 93 57 29 104 78 107 148 25 333 159 196 254 174 152 189 222 165 178 196 229 216 223 232 206 218 252 248 263 289 296 272 275 243 236 243 257 226 212 222 213 179 173
124 143 155 119 87 115 115 57 106 154 150 202 252 204 260 339 225 101 151 193 159 189 217 190 234 239 184 14 339 330 342 337 331 290 263 260 258 248 229 217 208 206 171 170
186 97 67 86 131 164 209 133 172 167 185 197 231 189 57 252 292 92 9 120 151 177 206 214 188 144 350 343 335 331 332 329 318 325 317 317 311 285 205 194 166 148 155 155
358 84 111 103 217 100 59 120 106 241 236 147 180 171 223 159 234 161 192 146 184 158 130 84 79 33 350 337 331 345 350 349 351 352 353 5 9 35 117 116 130 114 94 92
268 190 80 218 59 109 201 157 228 212 48 349 293 163 74 37 13 62 279 168 83 161 69 80 56 357 350 341 338 6 24 36 36 38 48 59 59 57 71 78 84 93 91 93
45 14 73 360 81 38 40 349 343 347 313 305 236 210 66 40 18 323 28 40 290 87 79 64 6 349 346 357 8 29 39 50 59 59 64 69 70 71 72 81 92 97 92 94
45 6 34 42 360 47 4 328 288 7 316 296 1 38 14 54 236 1 83 97 74 31 44 9 345 346 1 21 31 44 54 60 66 71 74 75 77 77 75 72 80 85 91 90
58 39 348 348 40 28 15 355 341 360 315 298 280 159 99 51 20 42 15 54 39 46 3 1 350 18 29 41 44 49 57 63 68 69 71 72 73 76 77 72 69 72 76 80
31 56 32 354 353 5 349 326 321 289 258 74 47 51 34 39 56 58 18 39 32 19 24 13 21 25 33 46 53 55 61 66 66 68 67 69 72 74 72 73 72 75 76 77